JBU969 KRIC-KMCO

Flight info

Callsign JBU969
Flight time 1h 47m
Altitude 36000
Route KALLI7 DRAIK GSO Q83 ROYCO Q85 LPERD GTOUT1
Aircraft A320/M-SDE3FGHIRWY/LB1

Departure

Time 2026-05-07 15:51
Airport Richmond International Airport (KRIC)

Arrival

Time 2026-05-07 17:38
Airport Orlando International Airport (KMCO)
Time Latitude Longitude Altitude Speed Heading
2026-05-07 15:23 37.50849 -77.33056 168 ft 0 kts 330°
2026-05-07 15:39 37.50837 -77.33047 168 ft 4 kts 294°
2026-05-07 15:40 37.50841 -77.33026 168 ft 4 kts 234°
2026-05-07 15:40 37.50849 -77.33011 168 ft 1 kts 240°
2026-05-07 15:40 37.50849 -77.33010 168 ft 0 kts 240°
2026-05-07 15:44 37.50822 -77.33012 168 ft 8 kts 160°
2026-05-07 15:44 37.50762 -77.32975 168 ft 10 kts 153°
2026-05-07 15:44 37.50690 -77.32953 168 ft 12 kts 195°
2026-05-07 15:45 37.50605 -77.32983 168 ft 14 kts 192°
2026-05-07 15:45 37.50507 -77.32997 168 ft 15 kts 165°
2026-05-07 15:45 37.50463 -77.32881 169 ft 16 kts 103°
2026-05-07 15:45 37.50443 -77.32734 168 ft 18 kts 95°
2026-05-07 15:46 37.50423 -77.32378 168 ft 22 kts 94°
2026-05-07 15:46 37.50411 -77.32177 168 ft 24 kts 94°
2026-05-07 15:46 37.50400 -77.31998 168 ft 21 kts 94°
2026-05-07 15:47 37.50389 -77.31807 168 ft 23 kts 95°
2026-05-07 15:47 37.50377 -77.31648 168 ft 15 kts 106°
2026-05-07 15:47 37.50293 -77.31566 168 ft 17 kts 147°
2026-05-07 15:47 37.50188 -77.31482 166 ft 20 kts 148°
2026-05-07 15:48 37.50069 -77.31387 168 ft 21 kts 147°
2026-05-07 15:48 37.49941 -77.31284 168 ft 23 kts 148°
2026-05-07 15:48 37.49801 -77.31172 168 ft 25 kts 147°
2026-05-07 15:48 37.49677 -77.31073 168 ft 21 kts 147°
2026-05-07 15:49 37.49551 -77.30973 168 ft 12 kts 147°
2026-05-07 15:49 37.49488 -77.30904 168 ft 12 kts 94°
2026-05-07 15:49 37.49532 -77.30810 168 ft 14 kts 56°
2026-05-07 15:49 37.49583 -77.30716 167 ft 10 kts 37°
2026-05-07 15:50 37.49632 -77.30732 167 ft 0 kts 327°
2026-05-07 15:50 37.49717 -77.30799 167 ft 46 kts 328°
2026-05-07 15:50 37.50178 -77.31168 167 ft 108 kts 327°
2026-05-07 15:50 37.50945 -77.31779 171 ft 152 kts 333°
2026-05-07 15:51 37.51879 -77.32505 662 ft 157 kts 332°
2026-05-07 15:51 37.52628 -77.33494 1347 ft 163 kts 292°
2026-05-07 15:51 37.52638 -77.34988 1728 ft 186 kts 259°
2026-05-07 15:51 37.52306 -77.36666 1965 ft 208 kts 259°
2026-05-07 15:52 37.51944 -77.38542 2202 ft 233 kts 259°
2026-05-07 15:52 37.51549 -77.40633 2597 ft 258 kts 260°
2026-05-07 15:52 37.51126 -77.42900 3238 ft 272 kts 260°
2026-05-07 15:52 37.50693 -77.45224 4193 ft 271 kts 259°
2026-05-07 15:53 37.50274 -77.47473 5447 ft 260 kts 257°
2026-05-07 15:53 37.49864 -77.49693 6417 ft 260 kts 256°
2026-05-07 15:53 37.49455 -77.51921 7300 ft 260 kts 257°
2026-05-07 15:53 37.49048 -77.54133 8254 ft 258 kts 257°
2026-05-07 15:54 37.48638 -77.56316 9240 ft 255 kts 256°
2026-05-07 15:54 37.48151 -77.58448 10201 ft 249 kts 253°
2026-05-07 15:54 37.47634 -77.60506 10925 ft 257 kts 253°
2026-05-07 15:54 37.47060 -77.62741 11121 ft 280 kts 252°
2026-05-07 15:55 37.46436 -77.65161 11323 ft 300 kts 252°
2026-05-07 15:55 37.45769 -77.67685 11869 ft 307 kts 251°
2026-05-07 15:55 37.45081 -77.70240 12552 ft 309 kts 251°
2026-05-07 15:55 37.44383 -77.72810 13260 ft 312 kts 251°
2026-05-07 15:56 37.43678 -77.75405 13918 ft 314 kts 250°
2026-05-07 15:56 37.42976 -77.78018 14532 ft 316 kts 251°
2026-05-07 15:56 37.42279 -77.80641 15140 ft 317 kts 251°
2026-05-07 15:56 37.41579 -77.83284 15728 ft 319 kts 251°
2026-05-07 15:57 37.40875 -77.85938 16316 ft 321 kts 251°
2026-05-07 15:57 37.40162 -77.88609 16881 ft 323 kts 250°
2026-05-07 15:57 37.39442 -77.91296 17492 ft 325 kts 250°
2026-05-07 15:57 37.38716 -77.93999 18106 ft 327 kts 250°
2026-05-07 15:58 37.37986 -77.96720 18650 ft 329 kts 250°
2026-05-07 15:58 37.37263 -77.99414 19201 ft 330 kts 250°
2026-05-07 15:58 37.36528 -78.02145 19805 ft 330 kts 250°
2026-05-07 15:58 37.35793 -78.04873 20418 ft 329 kts 250°
2026-05-07 15:59 37.35059 -78.07597 21009 ft 329 kts 250°
2026-05-07 15:59 37.34326 -78.10315 21565 ft 328 kts 251°
2026-05-07 15:59 37.33594 -78.13025 22131 ft 327 kts 251°
2026-05-07 15:59 37.32861 -78.15734 22661 ft 328 kts 251°
2026-05-07 16:00 37.32127 -78.18446 23180 ft 328 kts 251°
2026-05-07 16:00 37.31391 -78.21161 23679 ft 328 kts 251°
2026-05-07 16:00 37.30654 -78.23875 24090 ft 329 kts 251°
2026-05-07 16:00 37.29912 -78.26601 24487 ft 330 kts 251°
2026-05-07 16:01 37.29167 -78.29337 24877 ft 331 kts 251°
2026-05-07 16:01 37.28431 -78.32040 25256 ft 332 kts 251°
2026-05-07 16:01 37.27714 -78.34805 25615 ft 334 kts 252°
2026-05-07 16:01 37.27063 -78.37611 25987 ft 335 kts 253°
2026-05-07 16:02 37.26447 -78.40434 26338 ft 336 kts 254°
2026-05-07 16:02 37.25839 -78.43273 26726 ft 337 kts 254°
2026-05-07 16:02 37.25225 -78.46121 27100 ft 339 kts 253°
2026-05-07 16:02 37.24598 -78.48977 27467 ft 340 kts 253°
2026-05-07 16:03 37.23960 -78.51844 27832 ft 341 kts 253°
2026-05-07 16:03 37.23316 -78.54721 28187 ft 343 kts 253°
2026-05-07 16:03 37.22667 -78.57607 28536 ft 344 kts 253°
2026-05-07 16:03 37.22015 -78.60497 28939 ft 344 kts 253°
2026-05-07 16:04 37.21363 -78.63372 29464 ft 341 kts 253°
2026-05-07 16:04 37.20713 -78.66224 29992 ft 339 kts 253°
2026-05-07 16:04 37.20065 -78.69054 30486 ft 336 kts 253°
2026-05-07 16:04 37.19425 -78.71851 31059 ft 330 kts 253°
2026-05-07 16:05 37.18800 -78.74602 31585 ft 326 kts 254°
2026-05-07 16:05 37.18182 -78.77325 32054 ft 323 kts 254°
2026-05-07 16:05 37.17565 -78.80041 32329 ft 324 kts 255°
2026-05-07 16:05 37.16948 -78.82758 32677 ft 324 kts 255°
2026-05-07 16:06 37.16338 -78.85443 33084 ft 323 kts 255°
2026-05-07 16:06 37.15723 -78.88143 33538 ft 321 kts 255°
2026-05-07 16:06 37.15107 -78.90827 33993 ft 319 kts 255°
2026-05-07 16:06 37.14496 -78.93492 34376 ft 317 kts 255°
2026-05-07 16:07 37.13736 -78.96081 34738 ft 317 kts 248°
2026-05-07 16:07 37.12564 -78.98444 35084 ft 322 kts 239°
2026-05-07 16:07 37.10999 -79.00497 35413 ft 331 kts 230°
2026-05-07 16:07 37.09138 -79.02253 35741 ft 335 kts 228°
2026-05-07 16:08 37.07258 -79.03982 35901 ft 335 kts 228°
2026-05-07 16:08 37.03464 -79.07495 35934 ft 341 kts 228°
2026-05-07 16:09 36.99653 -79.11026 35934 ft 341 kts 228°
2026-05-07 16:09 36.95858 -79.14540 35924 ft 342 kts 228°
2026-05-07 16:10 36.92019 -79.18083 35931 ft 343 kts 228°
2026-05-07 16:10 36.88172 -79.21626 35937 ft 344 kts 228°
2026-05-07 16:11 36.84321 -79.25180 35941 ft 344 kts 228°
2026-05-07 16:11 36.80465 -79.28728 35948 ft 344 kts 228°
2026-05-07 16:12 36.76607 -79.32273 35954 ft 344 kts 228°
2026-05-07 16:12 36.72743 -79.35821 35912 ft 345 kts 228°
2026-05-07 16:13 36.68869 -79.39368 35931 ft 346 kts 228°
2026-05-07 16:13 36.65006 -79.42896 35972 ft 346 kts 228°
2026-05-07 16:14 36.61122 -79.46444 35973 ft 346 kts 228°
2026-05-07 16:14 36.57244 -79.49986 35968 ft 345 kts 228°
2026-05-07 16:15 36.54002 -79.52945 35930 ft 345 kts 228°
2026-05-07 16:15 36.49496 -79.57049 35885 ft 346 kts 228°
2026-05-07 16:16 36.45613 -79.60581 35884 ft 346 kts 228°
2026-05-07 16:16 36.42351 -79.63549 35892 ft 347 kts 228°
2026-05-07 16:17 36.38478 -79.67064 35894 ft 347 kts 228°
2026-05-07 16:17 36.34574 -79.70604 35924 ft 348 kts 228°
2026-05-07 16:18 36.30644 -79.74162 35922 ft 348 kts 228°
2026-05-07 16:18 36.26734 -79.77700 35902 ft 352 kts 227°
2026-05-07 16:19 36.22766 -79.81276 35939 ft 353 kts 227°
2026-05-07 16:19 36.18802 -79.84844 35942 ft 351 kts 227°
2026-05-07 16:20 36.14853 -79.88397 35942 ft 350 kts 227°
2026-05-07 16:20 36.10910 -79.91941 35940 ft 350 kts 227°
2026-05-07 16:21 36.06971 -79.95478 35900 ft 350 kts 227°
2026-05-07 16:21 36.02707 -79.98589 35908 ft 369 kts 216°
2026-05-07 16:22 35.97931 -80.00951 35910 ft 370 kts 216°
2026-05-07 16:22 35.93165 -80.03287 35910 ft 371 kts 216°
2026-05-07 16:23 35.88376 -80.05644 35908 ft 371 kts 216°
2026-05-07 16:23 35.83583 -80.08007 35863 ft 370 kts 216°
2026-05-07 16:24 35.78793 -80.10377 35860 ft 371 kts 215°
2026-05-07 16:24 35.73994 -80.12739 35872 ft 372 kts 215°
2026-05-07 16:25 35.69177 -80.15098 35881 ft 373 kts 215°
2026-05-07 16:25 35.64358 -80.17469 35884 ft 373 kts 214°
2026-05-07 16:26 35.59525 -80.19846 35878 ft 375 kts 214°
2026-05-07 16:26 35.54695 -80.22212 35891 ft 377 kts 214°
2026-05-07 16:27 35.49810 -80.24594 35897 ft 378 kts 214°
2026-05-07 16:27 35.44911 -80.26981 35904 ft 379 kts 214°
2026-05-07 16:28 35.39992 -80.29351 35907 ft 383 kts 211°
2026-05-07 16:28 35.37349 -80.30147 35909 ft 399 kts 202°
2026-05-07 16:28 35.34602 -80.30668 35875 ft 401 kts 202°
2026-05-07 16:29 35.29073 -80.31714 35899 ft 405 kts 202°
2026-05-07 16:29 35.23502 -80.32759 35902 ft 405 kts 202°
2026-05-07 16:30 35.17935 -80.33808 35900 ft 405 kts 202°
2026-05-07 16:30 35.12367 -80.34865 35892 ft 405 kts 202°
2026-05-07 16:31 35.06793 -80.35921 35869 ft 406 kts 202°
2026-05-07 16:31 35.01208 -80.36979 35873 ft 407 kts 202°
2026-05-07 16:32 34.95605 -80.38036 35883 ft 407 kts 202°
2026-05-07 16:32 34.89998 -80.39087 35889 ft 408 kts 202°
2026-05-07 16:33 34.84421 -80.40136 35861 ft 409 kts 201°
2026-05-07 16:33 34.78788 -80.41194 35866 ft 410 kts 201°
2026-05-07 16:34 34.73147 -80.42247 35870 ft 410 kts 201°
2026-05-07 16:34 34.67504 -80.43302 35875 ft 410 kts 201°
2026-05-07 16:35 34.61857 -80.44361 35878 ft 410 kts 201°
2026-05-07 16:35 34.56211 -80.45422 35861 ft 412 kts 200°
2026-05-07 16:36 34.50540 -80.46477 35861 ft 412 kts 200°
2026-05-07 16:36 34.44892 -80.47521 35897 ft 413 kts 200°
2026-05-07 16:37 34.39211 -80.48580 35906 ft 413 kts 200°
2026-05-07 16:37 34.33526 -80.49636 35880 ft 414 kts 200°
2026-05-07 16:38 34.27815 -80.50691 35892 ft 415 kts 200°
2026-05-07 16:38 34.22237 -80.52148 35899 ft 408 kts 205°
2026-05-07 16:39 34.16709 -80.53812 35917 ft 409 kts 205°
2026-05-07 16:39 34.11183 -80.55463 35865 ft 409 kts 205°
2026-05-07 16:40 34.05697 -80.57100 35878 ft 409 kts 205°
2026-05-07 16:40 34.00172 -80.58745 35889 ft 409 kts 205°
2026-05-07 16:41 33.94648 -80.60395 35893 ft 409 kts 205°
2026-05-07 16:41 33.89125 -80.62044 35887 ft 409 kts 205°
2026-05-07 16:42 33.83596 -80.63688 35876 ft 409 kts 204°
2026-05-07 16:42 33.78060 -80.65332 35872 ft 410 kts 204°
2026-05-07 16:43 33.72514 -80.66975 35899 ft 411 kts 204°
2026-05-07 16:43 33.66991 -80.68615 35908 ft 411 kts 204°
2026-05-07 16:44 33.61432 -80.70261 35919 ft 412 kts 204°
2026-05-07 16:44 33.55858 -80.71904 35895 ft 413 kts 204°
2026-05-07 16:45 33.50261 -80.73557 35906 ft 415 kts 204°
2026-05-07 16:45 33.44649 -80.75218 35914 ft 416 kts 204°
2026-05-07 16:46 33.39052 -80.76865 35920 ft 417 kts 203°
2026-05-07 16:46 33.33411 -80.78515 35899 ft 417 kts 204°
2026-05-07 16:47 33.27763 -80.80168 35902 ft 418 kts 204°
2026-05-07 16:47 33.22108 -80.81829 35905 ft 419 kts 204°
2026-05-07 16:48 33.16448 -80.83490 35908 ft 419 kts 204°
2026-05-07 16:48 33.10779 -80.85141 35913 ft 420 kts 204°
2026-05-07 16:49 33.05132 -80.86777 35924 ft 420 kts 204°
2026-05-07 16:49 32.99442 -80.88438 35952 ft 420 kts 204°
2026-05-07 16:50 32.93753 -80.90093 35958 ft 421 kts 204°
2026-05-07 16:50 32.88058 -80.91749 35970 ft 420 kts 204°
2026-05-07 16:51 32.82379 -80.93393 35945 ft 419 kts 203°
2026-05-07 16:51 32.76739 -80.95028 35940 ft 419 kts 203°
2026-05-07 16:52 32.71064 -80.96671 35951 ft 420 kts 203°
2026-05-07 16:52 32.65376 -80.98318 35956 ft 420 kts 203°
2026-05-07 16:53 32.59688 -80.99954 35967 ft 421 kts 203°
2026-05-07 16:53 32.53977 -81.01567 35938 ft 425 kts 200°
2026-05-07 16:53 32.50992 -81.01955 35945 ft 437 kts 191°
2026-05-07 16:54 32.47945 -81.02015 35950 ft 439 kts 191°
2026-05-07 16:54 32.41864 -81.02105 35957 ft 440 kts 190°
2026-05-07 16:55 32.35737 -81.02201 35970 ft 440 kts 191°
2026-05-07 16:55 32.29614 -81.02309 35956 ft 440 kts 190°
2026-05-07 16:56 32.23480 -81.02419 35958 ft 441 kts 190°
2026-05-07 16:56 32.14248 -81.02577 35970 ft 442 kts 190°
2026-05-07 16:57 32.08088 -81.02686 35938 ft 443 kts 190°
2026-05-07 16:57 32.01929 -81.02799 35906 ft 443 kts 190°
2026-05-07 16:58 31.95759 -81.02927 35912 ft 444 kts 191°
2026-05-07 16:58 31.89568 -81.03098 35925 ft 446 kts 191°
2026-05-07 16:59 31.83358 -81.03279 35946 ft 446 kts 191°
2026-05-07 16:59 31.77136 -81.03452 35972 ft 447 kts 191°
2026-05-07 17:00 31.70958 -81.03616 35966 ft 447 kts 191°
2026-05-07 17:00 31.64724 -81.03790 35991 ft 448 kts 191°
2026-05-07 17:01 31.58629 -81.04604 35997 ft 431 kts 204°
2026-05-07 17:01 31.53226 -81.07272 35994 ft 417 kts 216°
2026-05-07 17:02 31.48081 -81.10436 35975 ft 418 kts 216°
2026-05-07 17:02 31.42934 -81.13572 35983 ft 419 kts 215°
2026-05-07 17:03 31.37753 -81.16729 35986 ft 420 kts 215°
2026-05-07 17:03 31.32551 -81.19859 35995 ft 421 kts 215°
2026-05-07 17:04 31.27320 -81.22954 36012 ft 421 kts 214°
2026-05-07 17:04 31.22084 -81.26033 35987 ft 422 kts 214°
2026-05-07 17:05 31.16377 -81.28107 35995 ft 443 kts 195°
2026-05-07 17:05 31.10151 -81.28243 35990 ft 453 kts 188°
2026-05-07 17:06 31.03841 -81.28215 35999 ft 454 kts 188°
2026-05-07 17:06 30.97523 -81.28205 36010 ft 454 kts 188°
2026-05-07 17:07 30.91196 -81.28203 35995 ft 455 kts 188°
2026-05-07 17:07 30.85931 -81.28190 36017 ft 455 kts 188°
2026-05-07 17:08 30.79588 -81.28164 36037 ft 456 kts 188°
2026-05-07 17:08 30.73236 -81.28141 36054 ft 456 kts 188°
2026-05-07 17:09 30.66899 -81.28125 35564 ft 454 kts 188°
2026-05-07 17:09 30.63729 -81.28121 34937 ft 456 kts 189°
2026-05-07 17:09 30.60552 -81.28120 34361 ft 457 kts 188°
2026-05-07 17:10 30.57360 -81.28042 33751 ft 460 kts 186°
2026-05-07 17:10 30.54146 -81.27848 33088 ft 463 kts 185°
2026-05-07 17:10 30.50920 -81.27575 32401 ft 466 kts 184°
2026-05-07 17:10 30.47682 -81.27264 31713 ft 468 kts 184°
2026-05-07 17:11 30.44425 -81.26953 31015 ft 469 kts 184°
2026-05-07 17:11 30.41165 -81.26663 30345 ft 470 kts 184°
2026-05-07 17:11 30.37916 -81.26397 29809 ft 465 kts 185°
2026-05-07 17:11 30.34699 -81.26152 29234 ft 461 kts 185°
2026-05-07 17:12 30.31555 -81.25920 28679 ft 457 kts 185°
2026-05-07 17:12 30.28396 -81.25693 28129 ft 453 kts 185°
2026-05-07 17:12 30.25266 -81.25467 27577 ft 449 kts 185°
2026-05-07 17:12 30.22160 -81.25242 27015 ft 445 kts 185°
2026-05-07 17:13 30.19083 -81.25017 26483 ft 441 kts 185°
2026-05-07 17:13 30.16033 -81.24791 25957 ft 438 kts 185°
2026-05-07 17:13 30.13007 -81.24564 25445 ft 434 kts 185°
2026-05-07 17:13 30.09999 -81.24336 24917 ft 431 kts 184°
2026-05-07 17:14 30.07012 -81.24110 24412 ft 428 kts 184°
2026-05-07 17:14 30.04054 -81.23888 23930 ft 425 kts 184°
2026-05-07 17:14 30.01112 -81.23669 23425 ft 422 kts 184°
2026-05-07 17:14 29.98230 -81.23455 22881 ft 419 kts 184°
2026-05-07 17:15 29.95338 -81.23239 22362 ft 415 kts 184°
2026-05-07 17:15 29.92464 -81.23025 21875 ft 412 kts 184°
2026-05-07 17:15 29.89617 -81.22815 21375 ft 409 kts 184°
2026-05-07 17:15 29.86786 -81.22607 20903 ft 406 kts 184°
2026-05-07 17:16 29.83982 -81.22400 20432 ft 403 kts 184°
2026-05-07 17:16 29.81192 -81.22190 19936 ft 400 kts 183°
2026-05-07 17:16 29.78422 -81.21982 19454 ft 398 kts 183°
2026-05-07 17:16 29.75669 -81.21776 18988 ft 395 kts 183°
2026-05-07 17:17 29.72932 -81.21575 18526 ft 392 kts 183°
2026-05-07 17:17 29.70219 -81.21376 18036 ft 389 kts 183°
2026-05-07 17:17 29.67529 -81.21164 17532 ft 386 kts 182°
2026-05-07 17:17 29.64858 -81.20936 17040 ft 383 kts 182°
2026-05-07 17:18 29.62215 -81.20704 16549 ft 379 kts 182°
2026-05-07 17:18 29.59598 -81.20473 16057 ft 375 kts 182°
2026-05-07 17:18 29.57013 -81.20246 15568 ft 371 kts 182°
2026-05-07 17:18 29.54475 -81.20026 15106 ft 367 kts 182°
2026-05-07 17:19 29.51942 -81.19807 14629 ft 364 kts 181°
2026-05-07 17:19 29.49426 -81.19590 14173 ft 360 kts 181°
2026-05-07 17:19 29.46943 -81.19378 13704 ft 356 kts 181°
2026-05-07 17:19 29.44484 -81.19170 13173 ft 352 kts 181°
2026-05-07 17:20 29.42048 -81.18963 12643 ft 350 kts 181°
2026-05-07 17:20 29.39630 -81.18755 12123 ft 347 kts 180°
2026-05-07 17:20 29.37227 -81.18549 11627 ft 345 kts 180°
2026-05-07 17:20 29.34844 -81.18344 11138 ft 342 kts 180°
2026-05-07 17:21 29.32476 -81.18141 10675 ft 340 kts 180°
2026-05-07 17:21 29.30155 -81.17940 10448 ft 330 kts 180°
2026-05-07 17:21 29.27947 -81.17746 10317 ft 311 kts 180°
2026-05-07 17:21 29.25866 -81.17557 10197 ft 289 kts 180°
2026-05-07 17:22 29.23905 -81.17380 9854 ft 278 kts 180°
2026-05-07 17:22 29.21973 -81.17213 9387 ft 281 kts 180°
2026-05-07 17:22 29.20007 -81.17042 8939 ft 284 kts 178°
2026-05-07 17:22 29.18052 -81.16604 8610 ft 288 kts 168°
2026-05-07 17:23 29.16159 -81.15835 8293 ft 288 kts 163°
2026-05-07 17:23 29.14283 -81.15031 7986 ft 287 kts 163°
2026-05-07 17:23 29.12417 -81.14232 7701 ft 285 kts 163°
2026-05-07 17:23 29.10584 -81.13449 7394 ft 284 kts 163°
2026-05-07 17:24 29.08739 -81.12662 7096 ft 282 kts 163°
2026-05-07 17:24 29.06900 -81.11879 6782 ft 281 kts 163°
2026-05-07 17:24 29.05065 -81.11099 6468 ft 280 kts 163°
2026-05-07 17:24 29.03237 -81.10342 6167 ft 278 kts 165°
2026-05-07 17:25 29.01407 -81.09636 5907 ft 277 kts 165°
2026-05-07 17:25 28.99581 -81.08954 5621 ft 275 kts 165°
2026-05-07 17:25 28.97762 -81.08297 5320 ft 272 kts 169°
2026-05-07 17:25 28.95904 -81.07976 5051 ft 269 kts 178°
2026-05-07 17:26 28.94047 -81.07773 4741 ft 267 kts 177°
2026-05-07 17:26 28.92208 -81.07560 4436 ft 266 kts 177°
2026-05-07 17:26 28.90372 -81.07357 4164 ft 263 kts 181°
2026-05-07 17:26 28.88575 -81.07532 4013 ft 259 kts 195°
2026-05-07 17:27 28.86894 -81.08211 3983 ft 256 kts 209°
2026-05-07 17:27 28.85423 -81.09274 3988 ft 243 kts 217°
2026-05-07 17:27 28.84078 -81.10343 3987 ft 228 kts 217°
2026-05-07 17:27 28.82810 -81.11344 3981 ft 216 kts 216°
2026-05-07 17:28 28.81581 -81.12317 3999 ft 216 kts 216°
2026-05-07 17:28 28.80360 -81.13286 3985 ft 213 kts 216°
2026-05-07 17:28 28.79145 -81.14251 3993 ft 212 kts 216°
2026-05-07 17:28 28.77946 -81.15203 3993 ft 213 kts 216°
2026-05-07 17:29 28.76794 -81.16256 3981 ft 213 kts 232°
2026-05-07 17:29 28.76099 -81.17740 3990 ft 211 kts 245°
2026-05-07 17:29 28.75520 -81.19266 3986 ft 208 kts 246°
2026-05-07 17:29 28.74975 -81.20725 3990 ft 194 kts 246°
2026-05-07 17:30 28.74452 -81.22122 3983 ft 190 kts 246°
2026-05-07 17:30 28.73932 -81.23507 3987 ft 190 kts 246°
2026-05-07 17:30 28.73415 -81.24882 3986 ft 189 kts 246°
2026-05-07 17:30 28.72897 -81.26256 3993 ft 189 kts 246°
2026-05-07 17:31 28.72376 -81.27637 3996 ft 190 kts 246°
2026-05-07 17:31 28.71851 -81.29021 3993 ft 190 kts 247°
2026-05-07 17:31 28.71333 -81.30385 3994 ft 190 kts 246°
2026-05-07 17:31 28.70692 -81.31688 3990 ft 189 kts 230°
2026-05-07 17:32 28.69672 -81.32605 3800 ft 189 kts 207°
2026-05-07 17:32 28.68388 -81.32954 3580 ft 193 kts 184°
2026-05-07 17:32 28.67041 -81.32944 3353 ft 193 kts 182°
2026-05-07 17:32 28.65703 -81.32925 3117 ft 192 kts 182°
2026-05-07 17:33 28.64367 -81.32909 3007 ft 191 kts 182°
2026-05-07 17:33 28.63035 -81.32895 3004 ft 192 kts 182°
2026-05-07 17:33 28.61751 -81.32879 3020 ft 176 kts 182°
2026-05-07 17:33 28.60581 -81.32866 2990 ft 158 kts 180°
2026-05-07 17:34 28.59537 -81.32854 2851 ft 145 kts 184°
2026-05-07 17:34 28.58548 -81.32844 2682 ft 140 kts 182°
2026-05-07 17:34 28.57576 -81.32834 2510 ft 139 kts 183°
2026-05-07 17:34 28.56604 -81.32824 2334 ft 139 kts 182°
2026-05-07 17:35 28.55644 -81.32814 2175 ft 138 kts 181°
2026-05-07 17:35 28.54684 -81.32803 1998 ft 137 kts 185°
2026-05-07 17:35 28.53733 -81.32793 1813 ft 136 kts 183°
2026-05-07 17:35 28.52786 -81.32783 1638 ft 137 kts 180°
2026-05-07 17:36 28.51823 -81.32773 1453 ft 137 kts 182°
2026-05-07 17:36 28.50887 -81.32763 1279 ft 138 kts 184°
2026-05-07 17:36 28.49927 -81.32753 1115 ft 137 kts 184°
2026-05-07 17:36 28.48986 -81.32742 937 ft 136 kts 183°
2026-05-07 17:37 28.48036 -81.32732 772 ft 135 kts 182°
2026-05-07 17:37 28.47096 -81.32722 595 ft 136 kts 183°
2026-05-07 17:37 28.46142 -81.32712 419 ft 134 kts 181°
2026-05-07 17:37 28.45198 -81.32702 223 ft 137 kts 181°
2026-05-07 17:38 28.44256 -81.32685 116 ft 127 kts 180°
2026-05-07 17:38 28.43519 -81.32678 106 ft 69 kts 180°
2026-05-07 17:38 28.43233 -81.32681 109 ft 23 kts 172°
2026-05-07 17:38 28.43135 -81.32647 106 ft 15 kts 162°
2026-05-07 17:39 28.43065 -81.32571 106 ft 14 kts 112°
2026-05-07 17:39 28.43058 -81.32470 106 ft 13 kts 89°
2026-05-07 17:39 28.43059 -81.32353 104 ft 16 kts 91°
2026-05-07 17:39 28.43059 -81.32238 101 ft 16 kts 89°
2026-05-07 17:40 28.43061 -81.32118 100 ft 15 kts 89°
2026-05-07 17:40 28.43062 -81.31994 102 ft 15 kts 90°
2026-05-07 17:40 28.43031 -81.31892 103 ft 15 kts 123°
2026-05-07 17:40 28.42974 -81.31790 103 ft 14 kts 122°
2026-05-07 17:41 28.42927 -81.31699 102 ft 13 kts 120°
2026-05-07 17:41 28.42890 -81.31643 102 ft 5 kts 130°
2026-05-07 17:41 28.42873 -81.31620 100 ft 3 kts 129°
2026-05-07 17:41 28.42872 -81.31618 100 ft 0 kts 129°